Home   Weather   Kyoto   Past weeks

Flag for Japan Past Weather in Kyoto, Japan — Yesterday and Last 2 Weeks

Now
73 °F

Passing clouds.


Feels Like: 76 °F
Forecast: 50 / 70 °F
Wind: 8 mph from Southwest

Location: Osaka International Airport

Current Time: Apr 24, 2017 at 2:38:54 pm

Latest Report: Apr 24, 2017 at 2:00 pm


Visibility: N/A

Pressure: 30.18 "Hg

Humidity: 29%

Dew Point: 39 °F

Location of KyotoLocation

Past Weather in Kyoto — Graph

°F

Kyoto Temperature Yesterday

Maximum temperature yesterday: 70 °F (at 2:00 pm)
Minimum temperature yesterday: 45 °F (at 5:00 am)
Average temperature yesterday: 61 °F

High & Low Weather Summary for the Past Weeks

 TemperatureHumidityPressure
High75 °F (Apr 16, 1:00 pm)100% (Apr 17, 4:00 pm)30.24 "Hg (Apr 17, 4:00 pm)
Low41 °F (Apr 13, 5:00 am)20% (Apr 14, 3:00 pm)29.36 "Hg (Apr 11, 3:00 pm)
Average61 °F55%29.84 "Hg
* Reported Apr 9 1:00 pm — Apr 24 1:00 pm, Kyoto, Weather by CustomWeather, © 2017

Note: Actual official high and low records may vary slightly from our data, if they occured in-between our weather recording intervals... More about our weather records

Advertising

Kyoto Weather History for the Previous 24 Hours

Scroll right to see more
 ConditionsComfort  
Time TempWeatherWind HumidityBarometerVisibility
1:00 pm
Mon, Apr 24
73 °FPassing clouds.6 mph23%30.21 "HgN/A
12:00 pm73 °FPassing clouds.5 mph23%30.21 "HgN/A
11:00 am70 °FPassing clouds.6 mph38%30.24 "HgN/A
10:00 am66 °FPassing clouds.6 mph43%30.24 "HgN/A
9:00 am64 °FPassing clouds.8 mph46%30.24 "HgN/A
8:00 am59 °FPassing clouds.10 mph51%30.24 "HgN/A
7:00 am52 °FPassing clouds.6 mph58%30.24 "HgN/A
6:00 am48 °FPassing clouds.3 mph66%30.24 "HgN/A
5:00 am45 °FPassing clouds.2 mph71%30.21 "HgN/A
8:00 pm
Sun, Apr 23
57 °FClear.10 mph39%30.09 "Hg10 mi
7:00 pm61 °FPassing clouds.13 mph31%30.07 "HgN/A
6:00 pm64 °FPassing clouds.14 mph28%30.04 "HgN/A
5:00 pm68 °FPassing clouds.10 mph23%30.01 "HgN/A
4:00 pm70 °FPassing clouds.12 mph21%30.01 "HgN/A
3:00 pm70 °FPassing clouds.10 mph21%30.01 "HgN/A
2:00 pm70 °FPassing clouds.13 mph25%30.01 "HgN/A
Weather by CustomWeather, © 2017

See weather overviewHow to use our weather pages